RH
5 5 4 4 4 4 4 4 3 3 2 2 2 2 2 2 2 2 2 2 3 3 2 3 2 2 2 2 2 1 4 7 10 9 6 5 5 6 8 12 18 23 28 29 25 23 23 22 27 46 68 75 78 77 69 70 74 82 84 80 80 76 79 79 78 83 82 81 68 59 63 59 56 49 46 49 52 51 50 65 75 76 78 72 59 52 51 47
6 5 4 4 4 4 4 4 4 3 3 2 2 2 2 2 2 2 2 2 2 2 2 2 2 2 2 2 2 1 2 3 7 10 9 7 5 6 6 9 15 21 26 29 27 23 23 24 28 48 69 73 76 73 64 65 71 81 78 74 82 79 75 72 79 88 81 79 69 61 66 64 61 51 53 63 56 53 63 74 78 77 68 53 49 51 52 48
10 7 6 5 4 4 4 4 3 3 3 3 3 2 2 2 2 2 2 2 2 2 2 2 2 2 1 2 2 2 1 0 4 7 10 9 6 6 5 6 12 18 24 28 28 23 23 26 29 46 69 71 71 68 61 62 66 76 77 76 81 75 70 66 78 89 73 72 73 64 68 70 65 59 68 75 69 72 78 78 80 77 56 42 47 48 50 51
14 11 7 6 5 4 4 4 3 3 3 3 3 3 3 2 3 3 2 3 2 2 2 1 2 1 2 2 1 3 3 9 14 5 5 11 8 6 5 5 9 16 22 26 29 25 23 25 28 45 67 69 65 60 55 58 63 70 75 83 83 71 69 64 70 83 76 79 76 65 70 73 66 67 79 80 77 82 77 76 82 77 55 42 46 45 51 56
19 15 11 8 6 4 4 3 3 3 3 3 3 3 3 3 3 3 3 3 3 2 2 2 2 1 2 1 1 8 18 30 28 8 2 9 10 7 6 6 6 13 20 25 29 27 24 23 29 50 65 62 58 51 48 55 59 68 77 86 89 78 69 63 66 75 84 91 74 68 79 74 67 72 84 86 81 80 75 74 78 75 58 43 44 46 53 59
23 21 17 11 8 5 3 3 3 3 3 3 3 3 3 3 3 3 4 3 3 3 3 2 2 2 2 2 2 5 25 39 28 13 6 4 10 10 6 6 6 10 17 24 28 26 26 23 31 56 62 53 51 46 45 54 56 65 78 87 94 90 73 64 68 70 82 94 76 75 84 72 71 71 80 86 75 76 76 74 77 75 64 48 44 50 56 61
22 23 22 16 9 5 3 3 3 3 3 3 3 4 3 4 4 4 4 4 4 3 3 3 2 3 1 3 3 6 28 38 19 11 11 4 8 10 7 7 5 8 14 21 26 25 24 24 35 55 55 46 46 41 42 51 56 66 77 81 83 81 74 65 69 71 82 96 86 86 85 77 81 72 72 72 61 72 77 76 77 72 67 54 47 55 62 64
19 20 23 19 9 4 3 3 3 3 3 4 4 4 4 5 5 5 5 5 5 4 4 3 2 3 2 3 11 24 36 31 12 8 11 6 6 10 9 7 6 7 11 19 25 23 22 28 40 50 46 43 42 38 41 47 57 71 76 76 69 67 73 70 73 78 81 89 89 88 82 77 81 74 74 70 65 76 75 78 77 67 72 66 52 56 64 67
17 19 23 19 8 3 3 2 3 3 3 4 4 5 6 6 7 7 7 6 6 5 4 4 3 3 3 6 21 35 34 21 10 10 12 8 5 9 10 7 7 7 8 16 23 22 23 28 38 48 47 42 38 37 43 44 57 77 78 73 65 65 75 78 83 83 76 80 85 86 81 79 79 78 80 74 76 79 71 79 76 67 78 77 62 57 64 71
19 21 23 15 6 3 3 3 3 3 3 4 5 7 7 8 9 9 10 9 9 8 7 7 5 4 6 15 31 35 27 18 11 9 12 10 5 7 11 9 6 8 8 13 21 22 21 24 37 49 47 42 34 37 48 47 61 81 74 67 63 65 76 80 84 81 77 81 83 86 89 90 82 78 80 73 75 77 75 83 78 72 76 81 76 63 65 73
20 22 20 10 4 3 3 3 3 4 4 4 6 8 9 10 11 11 12 12 12 11 10 10 9 9 8 16 31 30 20 16 10 7 9 11 8 7 10 10 7 7 7 11 18 20 19 24 35 40 39 38 31 39 55 51 65 83 71 68 66 63 73 76 75 76 82 86 82 83 87 88 77 70 75 72 73 78 81 82 79 78 73 81 87 70 69 78
18 19 15 7 3 3 3 3 3 4 4 5 8 10 12 12 12 13 13 13 13 13 13 12 12 14 16 20 26 21 13 11 8 8 7 8 10 9 9 11 9 7 7 9 14 18 20 22 29 37 41 38 28 40 58 54 70 88 74 71 69 61 70 80 81 80 84 87 81 77 80 85 78 68 70 71 73 79 83 81 79 80 73 81 85 68 72 76
16 16 11 5 3 2 3 3 4 4 4 6 9 12 13 13 13 14 14 15 15 15 15 15 13 17 28 30 20 12 10 10 9 9 7 6 7 10 11 11 9 7 7 7 11 17 20 21 26 37 41 34 29 40 57 63 76 84 72 69 71 69 72 77 83 83 81 84 81 74 78 87 79 65 68 74 72 75 84 81 77 79 77 80 77 68 75 69
15 14 10 5 3 2 3 3 4 5 5 7 10 13 13 12 13 14 16 17 16 17 17 16 17 24 32 29 16 10 9 9 8 7 7 5 3 5 10 11 11 8 7 6 9 15 18 21 25 30 30 28 34 38 51 69 77 78 76 72 74 77 75 68 69 76 81 86 85 78 77 85 84 68 66 74 74 80 87 80 76 80 78 79 76 75 83 72
13 13 9 5 3 2 3 4 5 6 7 8 11 13 13 12 13 14 17 18 17 17 18 19 26 38 40 32 23 12 8 13 14 13 8 3 8 12 9 10 14 9 7 7 6 13 17 19 24 31 31 30 33 33 46 68 73 73 70 63 67 73 77 72 63 69 76 78 83 85 81 83 86 76 68 71 75 86 89 79 78 80 78 80 75 77 89 80
11 12 10 5 3 2 3 5 8 9 9 9 11 12 12 13 13 15 16 17 18 17 19 23 27 37 37 31 29 20 19 27 24 21 11 5 22 29 11 9 16 10 8 8 5 10 14 19 31 37 32 29 29 29 41 55 56 57 55 54 63 67 74 78 69 68 73 74 79 85 88 88 85 78 79 78 75 86 91 82 81 79 78 81 76 81 92 87
10 11 10 6 3 2 3 6 12 13 11 10 12 13 13 14 14 15 16 17 21 21 20 26 28 31 30 25 28 29 29 29 24 23 14 7 20 22 10 12 17 12 8 6 6 10 11 22 37 34 26 27 29 31 39 42 39 43 48 51 58 62 68 75 72 65 65 72 78 79 82 87 81 70 79 84 74 80 88 85 86 81 77 80 78 82 91 93
9 10 10 6 3 2 3 9 16 16 11 11 12 13 14 15 14 15 18 20 29 34 27 29 33 31 28 24 26 29 28 26 24 24 18 11 12 13 17 21 17 11 9 7 7 13 17 27 35 30 26 27 27 34 38 39 40 42 45 47 52 59 62 68 73 68 65 73 81 83 82 86 86 73 80 92 80 76 82 84 89 84 79 81 77 77 88 94
9 8 9 7 3 3 3 10 18 16 11 12 12 14 14 18 22 18 17 22 33 39 30 28 32 27 24 25 27 28 25 23 22 25 25 18 13 16 22 22 16 13 13 12 11 16 22 26 28 25 25 25 25 31 33 37 45 44 43 43 47 54 56 65 77 74 75 83 86 89 88 89 93 83 81 91 82 76 84 85 87 85 81 81 76 75 84 87
9 8 8 7 4 2 3 9 18 15 11 13 13 15 18 28 37 26 18 24 29 30 26 25 27 26 24 25 27 27 24 24 23 27 27 20 17 22 22 19 18 16 16 18 15 19 24 22 22 20 20 22 23 28 31 36 40 37 37 38 39 47 52 64 77 69 66 78 84 86 84 79 82 79 78 85 78 73 80 81 84 87 83 80 75 75 80 83
9 8 7 7 4 2 3 9 17 14 11 13 14 16 20 29 36 26 22 28 25 23 25 25 25 25 23 24 26 28 28 27 25 25 22 21 25 26 20 17 18 15 16 21 21 23 24 19 18 17 18 23 27 33 35 34 33 32 32 29 30 41 47 56 71 68 59 65 74 80 81 76 78 77 76 81 77 70 75 79 83 89 86 79 76 76 80 84
8 9 8 6 5 3 2 8 16 15 12 14 14 16 19 21 24 20 24 29 23 22 25 24 26 26 24 24 25 29 29 24 23 24 21 22 28 25 19 16 14 14 15 22 27 23 19 16 17 19 23 28 30 32 31 30 29 26 26 23 25 38 47 56 68 68 59 59 67 78 86 86 83 78 74 76 76 75 80 81 80 86 87 80 77 77 81 85
7 9 9 7 5 3 2 6 15 17 13 14 15 16 17 17 18 18 24 30 25 22 24 25 25 24 24 25 25 28 27 20 21 24 19 22 27 23 20 16 12 14 16 19 22 19 15 14 15 20 26 28 26 24 23 24 23 20 21 19 23 35 39 49 61 60 58 60 66 78 88 85 76 74 76 74 73 76 78 76 72 75 81 81 77 77 80 84
7 8 9 8 5 4 3 3 12 18 16 16 16 16 17 16 17 18 22 29 25 21 22 22 21 21 21 22 24 27 24 18 21 23 20 23 24 18 18 17 13 13 13 14 15 14 14 15 17 22 25 24 20 21 21 21 20 18 19 17 21 30 30 38 52 55 60 69 72 75 81 84 71 66 74 74 68 71 71 70 70 70 74 78 78 76 77 83
8 7 8 9 6 4 3 2 8 17 19 19 18 18 17 14 17 17 17 24 25 20 19 19 19 19 19 20 24 26 22 20 21 22 23 24 23 19 17 16 15 13 11 13 13 12 13 15 19 21 20 19 17 19 20 19 19 16 17 17 17 23 26 35 48 55 58 65 72 69 65 76 75 67 73 71 61 66 69 68 71 72 72 75 79 78 77 80
11 7 7 9 7 4 3 2 5 13 20 22 20 19 17 15 16 14 17 25 23 17 17 19 18 17 17 20 23 23 22 22 21 22 24 24 23 21 19 16 17 17 14 14 12 10 11 12 17 18 15 15 14 15 17 17 18 16 18 19 17 23 30 37 48 54 50 53 66 68 59 66 74 75 79 69 55 65 73 69 68 71 70 71 77 79 78 77
16 10 7 8 8 5 4 3 3 8 18 22 20 19 17 16 15 13 20 28 19 13 15 15 16 15 16 18 19 19 20 22 23 23 24 24 24 24 23 18 16 16 16 15 12 10 11 12 15 14 12 12 12 12 14 15 15 15 21 25 23 29 34 39 49 51 48 57 68 70 69 68 66 71 77 67 58 67 73 71 69 71 71 70 73 78 80 78
21 14 8 7 8 6 4 3 3 4 12 19 20 18 17 16 14 14 26 29 16 12 14 13 14 14 15 17 17 17 17 20 23 24 24 24 24 25 23 18 16 16 16 17 17 14 13 14 13 12 11 11 11 11 11 13 13 12 17 23 28 33 34 39 50 47 44 57 62 61 70 66 58 73 80 66 62 67 66 65 65 67 72 70 70 76 80 80
23 19 10 7 8 7 4 3 4 3 7 16 19 18 17 16 14 17 28 27 16 13 13 12 14 14 15 16 16 16 16 18 20 21 23 23 23 24 23 20 18 17 16 17 18 17 17 17 15 14 13 10 10 11 11 12 13 11 11 17 26 33 36 42 48 43 39 48 48 49 63 57 51 82 92 69 60 62 56 56 57 59 64 64 67 76 82 81
19 21 14 8 7 8 5 3 4 3 5 13 19 19 17 15 17 21 26 22 15 13 13 12 14 14 15 15 14 16 15 17 19 21 24 23 23 24 23 22 20 17 17 16 15 16 17 17 17 16 14 13 14 14 13 14 12 11 12 17 23 27 33 40 42 41 39 39 38 45 63 59 50 71 81 64 58 58 54 54 58 62 60 62 70 78 83 83
13 20 18 11 7 8 6 3 4 3 4 12 19 20 19 20 23 26 25 20 14 12 12 13 13 13 14 13 13 14 14 16 18 20 22 23 22 24 23 22 21 19 18 16 15 16 17 18 18 17 15 14 16 15 16 18 14 12 14 20 23 22 27 34 36 39 38 36 42 52 64 62 52 57 64 65 65 60 58 57 61 68 64 64 72 74 81 84
9 15 19 15 8 7 7 4 3 3 3 11 19 21 23 27 26 23 20 18 15 12 12 13 14 13 13 12 12 13 14 16 18 18 19 19 19 21 19 18 19 18 16 14 14 15 15 17 17 17 17 15 15 15 16 20 18 16 17 21 23 22 29 36 34 35 34 37 51 61 62 57 49 52 58 69 74 60 55 58 59 67 68 64 67 68 76 83
6 10 16 17 11 7 8 5 3 3 4 10 19 23 27 30 26 21 17 14 12 12 13 14 14 14 12 12 13 13 13 15 16 17 17 16 17 17 17 17 16 17 16 13 12 13 14 17 18 18 20 19 18 16 16 20 21 20 20 21 22 23 30 35 30 29 29 33 50 62 61 51 43 48 51 63 76 62 51 56 58 63 68 65 61 64 74 82
5 7 12 17 14 8 7 6 3 3 4 9 19 26 29 27 24 22 16 12 13 13 13 13 14 14 13 13 14 13 13 15 16 16 16 17 16 15 18 19 17 17 17 13 11 12 13 18 22 21 22 24 23 20 18 21 23 23 22 21 23 23 24 27 26 27 29 32 49 62 59 48 43 51 53 55 69 66 50 52 56 58 66 69 66 70 78 80
8 6 9 15 16 10 7 6 3 3 3 9 21 27 27 24 22 20 16 13 13 12 12 13 13 14 13 13 14 14 13 15 17 16 15 17 16 14 16 18 18 17 15 14 14 13 12 15 22 22 22 23 22 22 23 25 28 29 25 20 22 23 21 22 21 22 30 40 53 59 55 50 48 54 58 55 63 68 54 48 53 54 60 72 76 79 86 84
13 7 6 12 16 12 9 6 4 3 2 10 23 26 24 23 21 18 16 15 14 13 13 14 13 13 13 14 15 15 13 14 17 15 15 16 16 16 17 17 19 17 17 18 16 15 13 15 20 23 22 22 22 25 28 31 32 32 32 27 24 25 23 22 23 25 34 45 49 46 44 47 53 60 66 63 66 72 61 47 50 54 57 67 75 73 77 83
17 11 7 10 14 13 10 6 4 3 2 11 24 24 21 22 22 21 20 18 17 15 13 13 13 12 13 14 15 16 14 13 14 13 15 16 15 17 18 18 20 19 19 21 16 16 17 16 19 20 21 25 29 27 30 39 36 30 40 40 32 35 33 28 34 39 42 44 41 39 40 44 53 63 67 65 70 80 74 57 52 55 55 59 71 72 68 76
21 16 9 9 13 14 10 7 5 2 4 15 24 24 22 21 22 24 24 21 19 16 13 12 13 13 13 13 13 15 14 13 14 13 13 15 16 18 19 18 21 21 20 20 17 16 16 15 17 19 19 25 31 26 28 42 41 33 43 45 38 46 47 39 39 40 38 37 38 40 38 36 47 59 64 62 66 76 81 77 63 55 55 57 63 69 71 81
25 19 14 11 12 14 11 8 5 2 9 21 22 21 21 21 24 27 27 23 19 16 14 12 12 13 13 13 13 15 13 12 14 14 13 15 17 20 19 18 20 21 21 20 18 17 17 16 17 18 19 21 26 26 25 35 41 39 42 40 37 45 51 49 46 42 36 31 38 44 36 35 49 60 65 64 61 64 73 85 80 62 57 59 60 66 76 83
28 25 26 19 12 13 12 8 5 7 17 23 20 18 17 15 19 26 29 25 19 17 15 13 13 13 13 13 13 14 14 13 13 14 14 15 17 18 18 18 18 20 21 19 18 18 18 18 16 17 19 19 22 26 27 33 43 44 39 35 37 40 42 47 49 48 42 32 37 44 37 41 57 60 56 55 60 65 61 71 86 80 65 59 59 68 78 79
29 26 32 26 15 14 12 8 8 16 24 23 19 18 16 15 17 23 29 25 19 18 18 15 13 12 13 14 13 14 14 15 15 14 13 14 15 15 18 21 20 19 20 19 18 18 18 19 18 17 17 17 21 27 29 34 42 43 35 31 35 38 44 53 50 42 35 29 32 36 35 50 68 67 56 52 62 71 62 59 77 88 80 65 59 66 75 77
31 29 33 29 21 16 12 14 18 24 26 21 19 18 17 20 20 22 27 26 20 19 19 18 15 13 13 13 14 15 15 15 15 14 14 13 13 16 21 24 21 20 19 16 16 19 21 21 20 19 19 16 19 27 32 35 39 38 35 36 40 41 47 56 53 40 31 28 31 28 31 48 61 59 52 56 71 74 65 66 73 86 92 77 64 67 71 75
39 39 39 35 27 18 16 25 29 27 26 23 22 22 21 22 19 19 25 25 21 19 19 18 15 13 14 13 14 16 15 16 16 15 16 15 15 18 21 22 20 19 18 15 15 19 21 21 22 23 22 18 17 25 33 37 38 37 40 47 50 47 45 48 52 49 36 30 31 28 33 51 61 56 47 59 83 75 58 65 72 82 95 83 70 73 71 72
42 44 43 36 27 19 22 32 29 25 28 27 25 24 23 22 18 18 23 24 22 20 19 19 15 14 14 13 15 16 15 16 17 17 18 16 17 20 21 22 20 19 19 18 19 21 21 22 26 26 23 20 20 25 31 37 39 37 39 46 49 52 53 51 52 52 41 31 31 30 36 55 69 63 47 58 88 81 55 55 63 74 89 85 76 76 72 71
46 48 45 36 27 20 23 31 29 28 32 29 26 25 23 22 21 21 23 24 22 21 20 19 16 14 15 14 15 16 16 17 17 18 19 17 19 22 22 22 18 19 26 26 22 23 21 21 26 28 24 23 23 24 30 39 41 38 41 48 51 51 52 52 51 47 40 35 36 37 43 58 67 58 45 61 92 88 64 59 60 66 80 86 83 79 74 73
50 49 44 37 33 26 24 30 33 36 39 33 30 30 24 22 23 23 24 25 25 24 22 20 18 15 14 14 15 15 17 17 16 17 20 18 18 19 22 23 20 23 30 26 21 22 23 24 26 27 28 27 25 24 29 37 37 34 38 45 48 45 45 51 51 45 41 39 43 50 53 55 58 50 45 67 94 92 78 73 66 59 65 75 79 77 77 77
52 50 47 44 42 37 32 32 34 36 38 36 35 34 28 23 22 25 25 25 26 27 24 21 20 18 14 14 15 15 16 17 17 17 19 19 17 17 21 24 22 23 25 21 21 23 24 25 23 24 28 27 25 24 27 35 37 33 34 37 39 42 46 51 53 54 53 45 46 58 57 48 46 41 40 66 92 90 79 75 70 62 58 62 67 70 75 79
61 59 59 57 51 44 37 33 34 35 34 35 37 36 31 26 23 27 30 27 25 26 24 21 21 19 16 14 14 15 16 17 19 19 19 19 18 17 20 22 22 25 24 23 27 27 24 23 20 20 23 23 23 23 25 36 44 42 39 40 41 44 46 46 48 55 59 52 51 62 62 51 46 35 33 61 89 86 73 67 66 66 64 61 63 65 72 80
67 66 67 65 55 51 48 44 43 44 41 41 44 41 37 33 27 26 30 29 26 26 24 21 20 19 17 15 15 16 17 17 20 22 21 21 19 18 19 20 22 26 27 24 26 27 25 22 20 21 22 20 20 20 22 30 41 43 41 42 43 44 45 44 44 47 50 53 59 66 63 59 60 54 45 60 78 74 66 67 66 66 67 65 63 65 71 79
55 59 64 64 56 54 58 55 53 54 50 49 49 44 41 40 33 28 28 29 29 29 26 23 21 20 18 16 15 16 17 19 20 22 23 22 20 20 21 21 21 23 25 22 22 27 27 23 23 26 25 21 18 20 22 24 29 36 38 40 43 42 43 44 44 44 43 47 56 62 63 65 75 79 66 60 71 75 73 73 67 63 64 63 62 63 70 80
34 42 53 56 53 57 61 56 54 55 52 48 48 48 44 40 36 32 30 30 32 31 27 25 23 21 19 17 16 15 16 19 20 20 21 21 21 22 23 23 22 21 21 21 21 26 27 24 24 25 23 21 18 18 20 22 24 27 28 31 35 37 40 40 41 45 48 51 57 59 61 63 67 76 74 67 76 89 92 85 74 67 66 64 64 62 62 73
24 33 45 49 53 64 67 58 53 53 51 46 44 47 46 42 39 36 34 37 39 34 30 30 28 25 23 20 18 17 16 17 18 18 18 18 20 21 21 21 22 21 20 21 22 25 28 26 24 23 22 23 19 17 23 27 26 26 29 33 33 33 37 38 41 48 51 56 62 62 64 65 60 67 84 89 89 93 98 94 82 74 70 68 69 66 58 62
Wind_Speed
7 7 8 8 8 8 8 8 7 7 7 6 6 5 4 4 3 3 3 3 4 4 5 6 5 5 5 5 5 6 9 10 11 11 12 12 13 13 14 14 13 12 10 8 6 4 2 3 5 4 4 4 3 3 4 5 6 7 6 6 4 1 5 9 9 10 13 16 15 12 12 10 11 11 12 11 10 9 8 10 11 11 12 12 10 8 8 9
6 6 7 7 8 8 8 8 7 7 7 6 6 5 5 5 5 4 4 3 3 4 4 5 5 5 5 5 4 4 6 8 10 11 12 11 12 12 13 14 14 13 12 9 7 6 4 2 3 3 3 1 5 3 3 6 6 7 7 7 6 0 5 9 11 10 9 13 14 13 12 11 11 12 12 10 9 9 10 10 11 13 12 10 9 10 9 10
5 6 6 7 7 7 8 7 7 7 7 7 6 6 6 6 6 6 5 4 3 3 3 4 5 5 5 4 3 3 3 4 7 11 12 11 11 11 12 13 14 14 13 11 8 7 5 2 2 1 2 3 6 3 4 7 7 6 6 7 5 2 4 8 10 8 7 12 13 12 12 12 11 11 11 10 10 10 10 11 12 12 10 9 10 10 10 11
5 5 5 6 6 7 7 7 7 7 7 7 6 6 6 6 6 6 6 5 4 3 2 3 4 4 4 4 3 2 3 2 4 9 10 11 10 11 11 11 13 14 14 13 10 7 5 4 2 1 1 5 5 4 4 7 8 5 6 5 4 4 3 7 10 9 9 9 11 13 11 12 11 11 11 10 11 11 10 11 11 12 10 9 10 10 11 11
5 5 5 5 6 7 7 7 7 7 7 7 7 6 6 5 5 5 5 5 5 4 3 3 3 4 4 3 2 4 9 6 4 7 8 10 10 10 10 10 12 15 15 14 11 8 6 5 3 1 2 4 5 4 3 5 7 5 6 5 5 5 2 6 10 12 10 8 11 13 11 11 11 11 12 10 10 11 11 11 10 12 10 9 10 10 11 10
4 4 5 5 5 6 7 7 7 7 7 7 7 6 5 5 4 4 4 5 5 4 4 3 2 3 3 3 1 5 8 2 5 5 7 9 10 10 10 10 11 14 15 14 13 10 7 6 4 2 3 5 4 5 4 6 6 4 4 4 5 5 5 5 9 14 13 10 11 13 12 11 11 11 12 9 11 13 12 12 11 13 12 10 10 10 11 10
3 3 4 4 5 6 7 7 8 8 7 7 6 5 5 4 4 4 4 4 4 4 4 4 3 3 3 3 2 3 4 4 8 5 6 8 10 10 9 9 10 13 14 15 13 11 9 7 4 4 6 6 4 4 6 7 7 5 5 5 5 8 9 7 10 15 16 14 12 12 12 11 11 11 11 8 11 14 13 12 13 15 14 11 10 10 11 9
4 3 3 3 4 5 7 7 8 8 7 7 6 6 5 5 5 4 4 4 4 4 3 4 3 2 3 3 6 8 1 9 9 6 6 7 9 10 10 10 10 11 14 15 14 12 10 8 6 6 7 7 5 4 6 6 6 7 6 7 9 11 11 8 12 18 19 17 15 13 12 11 11 11 10 9 12 14 13 14 14 15 16 13 10 10 10 9
5 4 3 3 4 5 7 7 8 8 7 7 6 5 5 5 5 5 4 4 4 4 3 4 3 3 4 5 11 6 9 14 9 6 5 5 8 10 10 11 11 11 13 15 15 13 10 8 6 7 7 6 5 5 6 5 5 7 5 6 9 11 9 3 11 20 20 17 15 13 11 9 10 11 11 11 13 13 12 14 15 15 16 14 10 9 9 9
6 4 4 3 4 5 7 8 8 8 7 6 5 4 5 5 5 5 5 5 5 5 5 5 3 4 5 9 12 1 16 14 9 7 4 4 6 9 11 11 12 12 13 14 15 14 12 8 6 7 6 5 5 6 6 5 5 6 4 6 8 9 8 7 13 21 19 16 16 14 13 10 10 12 10 11 14 13 13 15 15 14 16 15 12 10 9 9
6 5 4 3 4 6 7 8 8 7 6 5 4 4 5 4 5 6 7 7 6 7 7 6 6 5 5 8 8 5 15 12 10 7 4 4 5 8 10 11 12 13 13 14 15 14 14 12 11 9 5 5 6 6 7 7 5 5 3 5 7 8 7 9 13 19 16 15 15 13 13 11 10 11 9 11 13 14 14 16 16 15 15 16 14 11 9 9
6 4 4 3 5 6 7 8 7 6 5 4 4 4 4 4 4 6 7 8 7 7 6 7 6 5 5 4 2 7 10 10 11 8 5 4 4 7 10 11 12 13 14 15 15 15 16 16 15 11 6 8 6 6 8 7 4 5 4 3 4 5 5 6 10 14 12 12 12 10 11 11 11 11 10 11 13 15 15 15 17 15 15 16 15 12 11 9
5 4 3 3 5 6 7 7 6 5 3 3 4 4 4 3 4 6 8 8 8 7 6 7 5 6 11 4 7 9 8 9 9 8 6 3 3 5 8 10 11 12 14 15 15 16 17 16 16 11 7 7 5 8 9 5 4 7 5 3 2 4 3 3 6 9 9 9 10 10 9 11 13 12 12 13 14 15 16 16 17 16 15 15 14 12 11 9
5 4 3 3 4 6 7 7 5 3 2 3 3 4 4 4 4 5 7 7 8 8 6 7 7 9 12 4 11 9 7 7 6 5 4 3 2 3 6 9 10 11 12 14 15 16 16 15 17 12 8 8 7 9 8 5 6 7 4 2 0 1 2 2 4 5 7 8 10 11 8 8 13 14 14 14 13 15 16 17 18 16 16 15 14 13 12 10
5 4 3 3 4 6 7 6 4 2 1 3 4 4 4 5 5 5 5 5 7 8 9 10 10 13 9 7 15 11 8 6 4 4 3 1 3 1 4 7 9 10 11 13 13 15 15 14 14 10 7 10 10 9 7 7 8 8 5 2 1 2 1 2 3 2 4 6 10 12 7 6 12 14 14 15 14 15 15 17 19 17 16 15 14 13 13 11
5 4 3 2 4 5 6 5 3 1 2 3 4 5 5 5 6 5 4 5 6 8 11 13 14 16 8 7 13 13 11 8 4 3 2 2 5 2 4 6 7 9 10 12 12 12 14 13 12 10 8 9 10 9 8 9 9 8 7 4 2 1 1 0 3 1 2 3 8 13 9 7 11 14 14 15 15 16 16 16 19 18 16 16 14 14 14 12
5 4 3 2 3 5 5 4 3 1 2 5 5 5 5 5 5 5 6 8 11 10 10 11 11 11 5 6 8 10 7 3 3 2 2 3 5 4 3 5 5 7 9 10 11 10 11 11 11 12 10 9 10 8 8 9 8 6 5 4 2 1 1 1 4 3 2 2 6 12 12 10 11 15 15 14 14 16 17 16 18 19 17 17 16 15 15 14
5 4 3 2 3 4 4 3 2 1 4 6 6 5 5 5 5 5 7 9 13 14 9 9 10 5 4 6 6 4 1 3 3 2 3 4 4 4 6 4 4 6 6 7 8 8 9 10 10 11 11 11 11 8 9 8 4 1 1 3 2 1 1 2 5 5 3 1 4 8 12 12 12 15 15 15 15 16 17 18 19 19 18 18 17 15 15 15
5 5 3 2 2 3 3 2 2 2 5 6 6 7 7 8 8 4 5 7 9 10 5 6 8 3 3 6 4 1 2 4 4 4 3 3 5 5 5 4 5 7 6 5 7 8 9 10 10 12 12 12 11 11 11 5 3 4 3 4 4 2 2 2 4 6 4 3 5 5 8 11 13 14 14 15 17 16 18 20 19 19 19 18 17 16 16 15
6 5 3 2 2 2 2 2 1 3 6 7 7 8 7 8 7 3 4 6 4 2 2 3 4 2 2 3 2 0 6 10 7 3 2 1 6 7 4 5 6 5 6 7 6 8 9 11 12 12 12 11 11 13 11 6 5 8 8 7 5 4 5 3 5 7 7 4 5 4 5 8 11 14 14 15 17 18 19 19 18 20 20 19 18 17 17 16
6 5 4 3 2 1 2 1 1 4 7 7 7 6 5 5 4 4 5 5 2 4 5 3 5 5 2 2 2 1 2 7 4 0 3 1 7 6 3 3 6 5 7 8 6 7 9 12 13 12 11 8 6 8 10 9 8 9 10 11 7 5 5 5 5 7 8 8 5 3 3 5 8 12 15 17 18 18 19 20 19 19 19 19 19 18 18 17
6 5 4 3 3 2 2 2 2 5 7 7 6 5 4 6 8 7 7 5 1 2 4 3 6 5 4 6 7 7 5 1 3 3 2 5 8 5 2 2 7 7 7 8 7 7 9 12 13 9 8 7 5 5 8 10 11 11 11 12 10 5 4 6 5 7 8 10 7 3 2 5 7 10 14 18 19 17 18 22 21 20 20 19 20 20 19 18
6 5 4 3 3 4 2 3 4 5 7 7 6 5 4 6 7 7 8 6 3 1 2 2 3 2 4 6 8 12 4 2 2 3 2 8 7 3 3 4 6 5 6 10 10 8 8 10 11 9 7 8 9 9 10 11 12 13 12 12 11 6 4 6 4 7 10 10 7 4 3 5 7 9 13 17 20 20 20 21 20 20 22 20 19 20 20 19
7 5 5 4 4 5 4 4 5 6 7 6 6 5 5 6 6 7 6 3 3 2 1 0 3 2 1 2 7 11 3 1 3 3 2 9 5 0 1 6 6 5 6 10 12 12 8 3 4 6 6 7 11 11 11 13 13 13 13 13 11 8 6 4 4 8 11 9 7 7 6 7 7 6 11 16 20 24 22 20 20 21 22 22 19 20 21 20
8 6 5 5 4 5 5 5 5 7 8 6 6 5 6 7 6 7 5 2 6 5 2 1 1 1 2 4 8 7 2 3 6 1 2 7 4 1 1 5 6 5 5 7 10 13 10 6 5 6 6 8 10 12 12 12 13 14 14 14 13 13 11 6 5 9 11 8 7 8 7 5 4 5 9 14 17 23 25 22 22 23 23 23 22 21 21 22
9 6 5 6 5 6 7 6 6 8 8 8 8 6 6 7 6 7 5 7 9 6 1 1 1 3 2 4 5 4 3 5 4 2 2 4 4 3 3 4 2 3 4 6 9 12 10 6 7 9 10 10 11 13 12 11 13 14 11 11 12 10 10 8 7 10 11 9 8 8 7 5 5 5 9 13 13 18 23 23 23 24 25 23 23 22 22 22
10 7 6 6 6 7 8 7 7 8 9 10 9 8 7 6 6 6 5 9 8 7 3 2 1 3 2 2 1 2 1 4 1 4 3 3 5 4 3 3 4 2 2 7 8 10 9 5 6 9 10 12 12 13 12 12 15 14 8 7 9 7 9 11 10 12 12 11 11 9 8 11 9 6 10 14 13 16 21 23 23 24 25 24 23 23 23 23
11 9 6 6 7 7 8 9 9 9 11 11 10 9 8 7 6 5 6 6 4 6 4 4 3 3 3 1 0 2 3 1 2 1 1 2 6 4 1 2 4 1 1 8 5 3 7 9 8 9 11 12 12 12 11 11 15 15 9 9 10 9 11 11 12 14 13 11 13 9 8 11 7 4 9 13 16 16 18 21 24 25 25 27 25 23 23 24
10 10 7 7 8 8 9 10 9 8 10 11 11 10 8 8 6 4 9 6 2 4 4 4 5 3 3 2 1 1 0 1 0 1 1 1 3 5 4 2 3 4 4 9 6 2 3 7 6 7 10 10 10 10 10 10 12 14 12 12 12 11 13 12 12 16 14 13 15 11 9 9 4 7 11 14 17 15 12 14 23 28 26 27 28 24 24 25
10 11 8 7 8 8 9 11 10 8 9 12 12 10 9 9 8 7 9 4 1 5 5 3 4 4 4 6 5 2 3 2 1 1 3 1 1 3 3 2 2 5 6 8 10 6 3 5 5 7 10 9 7 7 8 9 11 13 12 12 14 13 13 13 13 14 13 13 15 11 8 8 5 5 9 12 11 10 10 10 17 27 29 28 29 27 25 25
10 11 9 8 8 9 10 11 11 9 9 12 12 10 8 8 9 11 6 2 3 5 5 4 4 5 5 6 6 4 4 4 2 4 5 4 5 4 5 7 5 6 10 11 12 10 7 7 7 7 9 9 8 9 9 10 12 13 12 12 14 14 13 12 14 13 10 10 10 7 8 10 10 4 5 8 7 9 12 11 12 22 29 29 28 28 27 26
10 11 10 9 8 9 10 10 10 10 9 12 12 10 8 8 12 13 5 3 6 5 5 5 4 5 4 5 5 3 4 6 3 4 6 5 8 6 3 7 5 6 10 7 8 9 9 10 7 6 8 8 8 10 10 9 10 11 12 13 13 11 9 9 10 11 11 10 6 4 6 10 11 6 6 9 10 11 11 10 10 16 26 29 27 28 28 27
10 11 11 10 9 9 10 10 11 11 10 12 13 10 8 10 11 10 6 4 5 4 4 5 3 3 5 6 6 5 4 4 2 4 5 3 6 6 3 7 6 7 7 3 5 7 7 10 6 4 7 8 8 11 11 8 9 11 12 13 12 9 7 7 8 8 11 11 7 6 8 9 8 6 6 8 10 9 8 11 11 12 20 27 27 28 28 27
11 11 11 10 9 10 10 11 12 12 11 13 13 10 11 13 10 6 6 5 4 3 5 6 5 5 7 6 5 6 7 4 2 4 5 5 6 7 5 1 4 7 6 6 9 8 3 6 7 4 3 4 8 12 12 9 10 11 12 13 14 13 10 7 7 7 9 7 4 5 6 6 5 4 4 5 9 8 6 9 11 10 17 24 26 28 28 28
11 11 12 10 10 10 10 11 12 12 13 14 13 12 14 15 11 7 8 6 5 4 6 6 6 7 9 6 2 5 8 5 3 5 7 6 4 3 2 3 1 5 6 7 7 6 8 4 6 4 3 3 7 10 10 11 11 11 12 15 16 16 15 15 13 10 10 8 4 6 7 7 5 3 3 2 7 10 6 5 7 9 15 22 27 29 29 29
12 12 12 11 11 10 10 11 12 13 14 14 13 15 16 14 10 6 4 6 5 4 6 7 7 9 10 9 6 4 6 5 3 6 9 6 4 2 1 1 1 3 6 8 8 5 8 4 4 4 6 4 6 7 8 11 10 8 11 15 15 12 14 17 15 11 9 7 6 10 12 9 4 3 3 2 6 10 9 6 4 6 11 20 27 30 30 30
13 12 12 11 11 10 11 11 12 14 15 16 15 17 15 13 11 6 3 6 6 5 7 8 8 8 7 7 8 7 7 8 5 6 7 7 6 4 1 4 4 5 7 8 9 6 8 9 5 5 7 5 5 7 8 9 8 8 10 11 10 10 12 14 11 8 8 7 7 11 12 9 6 4 4 3 5 9 10 9 7 6 7 12 25 32 31 32
13 12 13 12 11 11 11 11 13 14 15 15 17 18 15 12 10 8 7 7 7 6 8 9 6 5 6 7 6 8 8 8 6 6 6 5 5 4 3 5 3 4 6 6 9 8 7 11 6 3 4 5 5 8 9 8 8 10 10 8 7 8 9 10 10 8 8 7 5 10 14 10 5 3 2 4 5 7 10 11 11 11 8 8 18 30 32 32
13 12 12 12 12 11 12 12 13 15 15 16 17 17 17 14 10 8 9 9 8 7 9 10 7 5 7 6 2 6 8 7 3 5 7 5 4 2 4 6 3 3 4 5 10 10 7 10 9 4 5 5 5 8 9 10 12 12 10 9 9 9 9 10 11 11 10 7 3 7 11 6 1 1 2 6 7 8 12 14 14 13 12 10 14 25 33 33
11 8 11 14 12 11 12 13 14 16 17 18 17 15 14 15 13 11 11 10 10 10 9 9 7 7 7 6 5 5 7 7 5 5 4 4 3 4 4 5 5 3 3 5 9 10 9 9 11 10 8 6 6 6 7 9 10 10 10 11 10 11 12 12 14 15 12 7 3 5 7 1 2 3 7 10 9 7 10 12 14 13 12 12 13 21 32 34
9 7 13 17 13 12 13 13 16 17 17 17 17 15 13 13 12 12 12 12 12 12 10 7 7 7 6 7 7 6 6 6 7 7 6 4 4 6 5 3 4 4 4 7 8 8 9 9 12 12 11 10 7 4 6 7 7 6 9 11 9 10 10 6 8 14 15 11 7 7 7 1 2 4 9 10 7 3 7 9 9 11 12 12 13 18 27 33
4 6 15 18 13 13 13 13 15 15 16 17 15 13 14 15 13 10 11 12 13 12 11 9 9 8 7 7 7 5 6 7 7 6 7 5 2 2 5 3 4 4 7 10 8 6 9 10 12 14 14 13 8 4 6 8 8 9 9 10 9 9 9 6 6 12 14 12 11 11 10 4 2 6 9 7 4 2 4 7 6 7 8 10 12 17 24 31
6 7 18 20 15 13 13 14 15 15 17 17 13 12 13 14 14 13 12 12 13 13 12 11 11 10 9 9 7 6 7 8 8 5 5 5 4 3 3 1 4 5 8 11 5 5 11 11 10 14 16 15 10 7 8 10 10 9 9 11 12 11 10 10 13 15 15 12 11 11 8 3 2 6 8 7 5 3 3 4 5 4 7 8 9 14 22 29
11 8 15 18 17 15 16 15 14 15 16 16 14 14 14 13 13 14 13 13 13 13 13 12 12 11 10 8 7 7 6 7 7 7 7 5 5 5 3 2 5 6 8 9 3 3 8 8 7 11 13 11 10 9 9 9 9 9 9 11 14 16 14 13 14 15 14 12 10 9 5 4 6 7 8 8 4 2 3 3 4 3 7 8 7 11 20 28
9 7 10 15 16 17 18 16 13 13 14 15 16 16 15 14 15 15 14 13 13 13 13 12 12 12 10 9 9 8 7 6 6 6 6 5 4 4 4 4 5 4 7 10 8 6 10 8 8 10 10 8 7 7 7 6 8 8 7 7 9 13 15 14 12 11 10 9 9 9 7 7 9 10 11 8 4 1 3 2 3 3 4 7 7 9 15 25
6 5 7 11 14 16 18 17 15 14 11 11 14 15 15 15 15 15 15 14 13 13 13 12 11 11 11 11 11 10 9 9 8 5 5 7 7 5 5 5 6 6 7 10 10 9 11 11 11 12 12 12 12 11 9 9 11 10 9 9 9 11 14 13 10 9 9 9 8 9 9 8 10 12 12 9 4 3 3 2 2 3 3 4 7 9 13 23
4 4 6 9 10 13 16 17 17 17 13 10 11 12 15 16 13 14 16 16 14 13 15 14 12 12 13 13 12 12 11 10 10 7 6 8 8 7 6 6 7 9 8 8 7 8 10 13 12 11 13 14 14 12 10 9 12 13 13 13 12 12 13 13 12 11 11 11 9 7 8 9 9 12 14 11 6 6 5 4 4 4 4 4 5 9 13 20
4 6 9 11 11 8 11 15 16 17 17 15 13 11 12 15 14 13 13 13 13 13 15 16 15 15 15 13 13 13 11 11 10 9 8 9 9 9 9 8 9 10 8 7 7 7 9 13 13 11 11 12 12 11 9 8 9 10 12 13 12 11 12 12 12 12 12 12 10 10 12 10 8 10 12 10 9 8 7 6 4 4 4 4 5 7 11 18
7 8 9 13 15 10 9 13 15 15 15 15 15 13 12 13 16 15 13 12 13 14 15 15 15 16 17 15 14 13 12 11 11 11 10 10 9 9 10 9 9 10 6 6 8 9 10 11 11 11 11 12 12 11 9 9 10 11 12 13 13 14 14 14 14 13 14 15 11 10 13 12 9 8 8 9 12 10 7 5 2 2 1 2 4 5 7 14
9 10 11 15 17 14 13 14 14 14 14 14 16 16 14 15 15 15 15 14 14 14 15 16 15 15 16 18 17 16 14 12 12 10 9 10 11 10 11 10 9 9 7 6 7 9 10 10 9 10 12 13 13 11 10 10 11 12 12 13 14 15 16 16 16 14 15 16 13 10 12 13 11 7 5 10 12 8 7 9 6 1 0 1 2 3 5 8
11 11 13 15 14 12 12 13 12 13 14 14 15 15 15 17 16 15 16 16 16 15 14 15 16 16 15 16 18 17 15 13 12 11 10 11 12 11 9 7 7 8 8 8 8 9 11 11 10 10 12 13 12 11 10 10 12 14 15 14 15 16 16 15 15 15 14 14 13 12 13 15 14 8 6 9 10 5 7 11 9 6 3 1 0 4 6 7
11 11 12 13 12 11 11 11 12 14 15 14 15 15 14 15 15 16 17 16 17 18 15 12 14 15 15 14 16 16 16 15 14 14 13 12 11 10 9 7 7 8 10 10 10 10 11 12 12 11 11 13 12 9 7 9 13 13 11 10 11 13 14 14 14 15 14 11 12 13 12 14 15 11 5 7 8 7 8 11 10 9 6 5 3 4 10 8
Wind_Direction
50 46 43 42 39 37 36 35 32 27 25 24 23 20 15 12 1 351 329 311 301 294 296 297 296 289 281 277 263 247 238 232 231 233 233 232 229 224 220 217 210 207 205 198 190 173 175 66 50 26 69 57 359 300 306 318 340 13 356 356 37 168 120 119 134 137 141 147 147 142 133 120 118 123 122 119 119 124 119 117 122 121 136 157 159 150 154 156
46 43 39 37 35 32 30 27 26 22 18 19 17 12 10 9 7 6 357 343 322 307 299 294 292 290 291 289 282 268 246 233 230 231 233 233 230 225 220 215 209 206 203 199 193 179 170 97 62 34 59 4 276 282 315 304 341 7 347 13 42 200 163 138 135 136 143 149 147 142 134 121 117 119 122 117 113 115 113 122 129 133 143 150 149 147 154 158
42 41 37 34 32 28 24 20 18 14 12 12 9 8 7 5 4 3 3 359 349 338 306 292 289 288 295 301 311 300 262 240 232 231 229 229 228 226 222 215 208 203 202 198 193 183 172 139 104 54 28 278 269 300 312 305 331 354 349 11 38 58 160 158 151 144 139 148 147 144 138 127 123 117 119 119 115 116 122 136 138 140 143 141 150 153 156 161
37 36 33 31 29 25 20 17 14 8 5 2 3 5 2 359 357 352 350 348 352 349 314 301 295 296 302 311 335 7 30 34 246 240 228 226 226 224 221 214 206 201 200 197 193 187 173 142 115 126 246 269 277 294 305 318 326 342 1 12 22 34 147 177 175 154 126 147 157 147 140 131 129 122 119 121 123 126 134 144 145 146 145 141 153 157 158 162
35 32 28 25 25 21 16 15 13 7 2 357 358 358 355 354 345 341 338 332 337 332 319 313 302 308 306 325 24 87 72 62 266 254 230 224 223 222 219 212 206 201 198 195 192 189 180 150 123 141 249 267 272 271 288 320 323 347 356 6 13 353 233 196 192 176 145 163 173 145 139 139 134 129 122 120 127 134 139 145 150 149 146 143 155 160 157 160
31 30 25 21 20 18 14 13 11 6 2 358 358 355 353 351 344 343 331 325 327 318 316 307 305 315 307 344 50 132 97 82 263 266 235 222 218 219 216 210 206 201 197 194 191 188 184 165 155 209 268 267 268 283 294 296 306 350 337 344 10 330 280 237 211 198 170 170 178 147 146 147 137 138 128 126 137 137 140 144 151 151 147 146 154 159 156 160
16 23 20 20 18 16 13 11 8 5 2 2 2 359 356 357 2 356 340 335 325 318 318 314 323 324 323 1 17 86 92 254 261 270 245 223 214 215 211 209 204 200 196 192 191 187 182 170 179 224 249 260 254 276 298 295 306 328 305 316 331 322 312 276 220 203 184 173 175 155 155 152 147 147 130 133 138 134 140 145 153 154 147 147 153 158 158 160
1 13 23 24 18 16 11 10 7 2 3 4 6 8 9 12 16 15 6 352 334 337 328 332 344 346 5 29 50 61 22 273 275 278 259 225 214 210 206 206 199 197 195 191 191 186 180 174 195 230 246 275 276 271 298 294 299 305 299 326 327 328 328 281 214 196 187 174 169 165 167 162 162 156 131 130 130 135 146 145 154 154 146 147 154 159 158 160
3 16 32 31 20 15 9 9 4 1 5 7 13 21 23 26 30 38 35 21 12 5 350 1 6 17 41 76 76 80 263 283 295 287 274 233 215 208 203 202 194 192 192 191 192 184 175 174 203 242 247 273 281 268 289 285 286 294 305 349 343 347 356 291 188 182 183 170 161 166 173 168 160 149 137 136 135 144 147 143 154 154 148 149 155 161 158 165
13 21 36 34 19 10 7 9 4 5 9 10 25 37 37 42 49 63 63 58 48 34 30 29 32 50 83 97 75 268 260 284 299 294 292 237 215 207 203 200 194 188 189 191 194 183 169 179 221 239 237 260 267 260 271 271 271 280 313 360 357 12 50 100 149 166 172 166 159 164 174 175 164 152 148 146 142 146 142 147 157 153 150 150 156 164 163 170
18 23 35 31 16 6 5 8 6 11 13 21 41 47 52 56 66 81 80 75 65 54 49 39 49 64 115 112 70 272 260 283 290 296 303 239 209 207 203 201 197 187 186 189 196 189 174 189 206 201 217 255 258 265 267 261 250 258 309 7 14 33 78 108 142 160 165 162 162 169 178 181 176 163 161 154 144 147 149 154 158 156 155 152 161 167 162 172
17 22 32 28 12 2 3 8 12 17 20 44 60 53 58 61 80 94 89 86 73 60 52 42 51 57 74 88 360 281 274 290 290 292 294 255 207 207 202 202 201 190 188 187 196 199 191 197 190 180 236 257 264 277 258 254 239 247 284 323 10 47 96 125 151 165 166 164 169 178 186 190 186 172 167 164 152 152 155 158 160 161 161 158 167 170 162 174
13 18 28 26 9 360 2 8 15 21 33 78 78 61 63 61 89 100 89 85 71 62 55 51 57 66 73 55 305 307 302 298 295 287 278 261 216 209 204 202 202 195 192 187 195 203 200 200 185 182 241 248 273 275 252 258 242 240 268 288 349 60 95 144 163 175 178 176 182 187 195 198 194 182 170 169 162 157 157 160 165 164 166 169 169 167 166 173
8 12 19 17 7 2 2 6 17 27 61 104 90 75 70 65 89 104 92 78 65 63 53 55 61 70 80 14 327 341 321 305 303 299 281 254 225 208 204 201 200 196 194 191 196 203 201 199 193 198 237 234 257 274 259 266 253 249 287 349 300 88 70 109 142 178 198 200 199 201 212 203 195 187 172 172 168 162 161 162 167 170 170 173 171 167 169 172
4 6 3 5 5 3 2 4 13 24 96 112 98 86 76 71 82 94 86 64 60 66 59 67 74 75 79 332 334 353 0 3 353 338 307 217 71 354 224 194 197 194 190 192 194 201 203 196 193 205 249 247 254 269 265 267 264 260 274 318 243 206 81 68 76 136 197 218 211 208 219 206 197 192 177 177 170 165 173 167 166 176 174 173 177 171 169 175
1 358 350 354 359 4 2 358 5 25 101 108 101 91 83 76 73 76 72 59 64 71 71 73 77 79 80 306 331 0 23 30 359 341 327 97 93 284 232 173 185 190 187 191 192 199 202 194 194 212 239 249 249 252 257 264 260 245 248 281 292 235 193 40 360 54 170 249 223 208 207 205 208 203 191 186 175 169 180 175 168 175 177 174 178 174 172 175
355 351 342 339 351 4 358 351 5 32 106 112 105 92 83 74 69 74 72 76 68 56 67 70 67 76 53 318 351 19 35 16 340 344 334 72 134 192 153 135 162 173 179 186 190 197 199 195 206 221 230 240 246 248 250 254 246 220 237 276 286 272 230 30 346 336 333 291 220 207 205 211 218 212 203 194 184 178 178 178 175 175 178 177 177 178 175 174
349 347 336 321 341 358 351 352 11 72 120 120 112 92 83 74 67 78 86 91 63 35 40 47 31 45 35 7 25 47 15 315 1 52 348 30 111 128 100 122 148 141 158 177 186 193 197 201 216 231 233 232 238 241 236 248 267 208 276 301 289 258 281 5 349 338 342 224 195 210 213 217 221 214 208 201 193 187 180 180 178 176 180 179 177 181 178 177
344 340 329 307 319 350 343 346 13 128 134 127 116 102 99 77 50 51 97 96 53 21 19 29 12 14 47 27 29 94 27 9 58 69 340 7 83 101 106 135 133 122 143 177 191 190 196 206 215 229 231 226 228 229 230 247 281 256 275 298 291 266 259 305 330 347 354 241 216 219 217 213 220 221 216 210 200 190 188 190 181 176 183 181 176 183 184 181
339 334 328 298 280 335 330 324 42 149 147 133 123 116 109 80 44 30 90 79 59 86 118 49 39 65 40 22 13 6 30 30 50 64 278 314 79 96 104 119 132 145 179 194 197 190 203 216 218 226 231 232 227 224 236 258 260 255 260 270 272 257 264 290 320 335 350 310 237 215 235 219 223 230 220 214 209 197 195 197 185 177 184 183 177 185 187 182
332 330 326 293 259 284 299 278 169 163 159 145 137 131 117 105 121 148 104 69 55 121 115 67 72 78 62 49 21 241 30 29 41 356 245 96 94 127 133 131 167 196 199 193 191 193 214 227 226 230 233 241 229 216 237 250 254 258 253 261 265 244 268 301 313 313 339 338 295 244 278 239 229 237 221 215 215 204 197 199 190 180 185 186 178 185 188 183
326 325 319 296 252 245 254 235 204 178 173 163 153 144 134 136 146 146 113 108 264 76 94 57 55 50 29 39 53 98 132 100 57 351 290 119 119 158 206 223 207 208 191 185 191 201 222 234 234 234 224 228 235 231 243 246 253 258 250 259 257 225 248 264 283 308 322 328 313 294 287 242 245 244 225 220 218 209 204 204 197 181 182 189 183 185 187 183
324 318 307 297 253 234 231 223 211 193 189 183 172 160 160 156 151 149 119 122 236 311 77 27 44 29 4 18 51 76 93 226 101 334 333 125 134 193 215 217 211 210 204 204 212 214 224 235 232 226 214 224 240 246 251 251 253 253 251 258 250 222 239 248 273 316 312 311 298 283 265 243 260 243 219 220 217 212 211 208 205 189 179 185 189 189 187 185
322 313 295 295 257 230 230 220 210 207 204 201 196 185 184 180 162 160 137 121 227 213 181 37 85 108 32 22 59 66 52 57 111 278 37 115 145 37 167 212 213 225 223 212 223 231 241 249 191 196 210 232 242 243 245 249 253 250 246 255 256 246 258 270 297 311 310 305 287 295 285 243 265 259 214 214 216 216 214 208 210 205 187 180 187 194 191 187
317 310 287 286 261 231 230 219 210 211 210 211 205 200 200 192 174 173 177 220 203 191 261 297 95 238 331 42 59 64 150 97 75 259 95 117 188 300 113 205 204 229 226 203 223 239 251 261 214 214 238 244 245 243 240 244 254 255 243 244 253 251 253 266 295 301 300 294 288 310 308 237 253 289 229 217 218 218 216 210 208 211 202 184 182 194 195 191
308 309 287 276 263 235 229 220 215 207 208 216 205 203 204 194 196 194 224 250 201 171 244 224 173 260 316 54 61 53 169 150 71 18 87 127 192 207 175 174 197 274 236 218 233 235 240 247 227 237 250 246 244 244 242 243 251 258 255 250 251 248 251 263 286 290 287 294 298 300 301 268 264 273 235 221 220 218 214 210 206 207 209 196 183 190 196 195
302 305 289 269 261 242 229 222 218 203 205 213 204 204 202 195 206 195 240 255 194 158 187 171 161 239 208 107 113 360 61 172 205 2 18 102 131 150 152 187 242 290 195 228 233 214 216 238 236 242 246 242 243 242 239 241 245 251 262 265 259 255 257 264 272 276 282 294 296 289 283 278 274 253 229 220 216 216 211 208 206 205 211 209 192 187 195 199
297 300 291 269 259 246 230 224 223 212 207 209 204 202 196 193 196 195 253 269 131 135 192 198 223 212 180 151 183 323 353 218 235 350 355 93 126 163 281 288 261 331 181 237 244 167 212 242 248 243 241 239 242 246 242 236 240 249 263 269 265 264 264 265 263 268 281 285 277 268 252 268 272 198 206 214 211 210 206 207 214 212 212 215 205 190 193 200
289 293 290 271 259 248 235 229 227 222 210 206 207 203 199 198 192 225 261 275 98 158 190 208 233 197 178 223 189 175 242 152 342 112 181 14 118 184 248 281 251 267 251 244 261 350 226 231 238 235 235 241 247 248 244 233 238 254 270 266 258 258 260 259 255 263 277 276 269 255 227 255 265 162 186 208 212 210 198 201 219 222 219 218 212 195 192 200
281 285 285 273 259 246 238 230 224 226 211 205 207 204 204 202 207 246 252 251 161 175 179 217 225 190 195 217 203 195 211 191 36 180 190 261 127 176 228 228 252 260 248 240 246 261 246 230 246 239 236 250 262 254 241 239 249 262 272 264 251 245 244 246 248 257 269 266 261 245 209 241 255 176 193 214 216 216 204 197 214 221 219 217 214 200 191 198
274 277 277 273 260 246 241 231 224 224 208 202 204 202 206 205 224 250 253 225 209 189 197 213 199 201 223 232 214 181 201 208 211 227 213 212 223 225 232 234 246 247 238 233 227 230 229 227 236 234 236 249 258 257 247 244 252 257 260 258 250 240 231 239 245 242 253 263 254 227 199 231 249 225 223 235 229 221 214 209 209 212 213 212 213 207 195 195
271 270 271 269 260 247 242 232 222 220 205 199 198 194 205 217 229 241 255 247 223 201 197 190 179 206 222 237 223 171 206 205 183 243 246 238 230 221 248 265 265 253 251 229 201 217 218 213 220 223 229 236 243 249 240 233 244 247 246 246 245 242 231 241 246 234 244 254 240 228 230 242 250 245 235 234 230 225 218 213 203 200 208 209 211 212 201 194
272 267 266 264 259 249 241 231 219 214 202 196 194 189 210 237 237 230 230 210 186 171 188 189 183 208 218 224 202 183 222 207 166 248 243 248 244 223 254 301 286 265 285 295 240 241 191 177 195 217 221 223 234 246 240 234 244 242 240 239 237 241 235 239 245 239 250 244 217 249 276 267 253 233 217 218 219 227 219 206 200 193 202 205 208 214 204 193
273 267 264 260 257 249 238 231 219 210 202 193 190 193 221 241 245 238 235 207 171 179 194 203 215 213 228 239 193 196 234 232 214 245 230 233 246 220 191 201 275 270 290 288 280 288 241 182 194 210 221 215 231 249 257 263 257 246 245 241 237 244 249 253 253 253 273 272 216 222 262 273 256 184 178 204 203 211 204 192 199 201 201 198 202 210 202 193
272 266 263 258 255 247 237 230 217 208 202 189 192 211 226 235 238 244 240 212 194 205 197 209 233 228 226 224 195 228 240 235 219 239 240 243 257 239 176 97 10 291 287 284 299 299 275 241 167 194 273 268 253 254 257 264 261 255 250 235 229 240 250 257 263 268 284 299 283 231 235 263 278 178 173 199 188 199 201 179 188 200 203 200 201 205 198 192
269 264 261 256 252 244 235 227 213 207 200 187 202 224 227 233 241 247 227 197 188 200 213 222 224 233 228 204 188 206 225 237 253 241 230 236 264 259 277 314 276 297 303 299 308 291 267 262 146 227 264 242 257 263 247 255 259 261 260 244 236 249 259 261 270 275 267 269 271 256 245 241 236 195 219 214 182 202 217 207 185 186 204 206 205 207 201 194
264 262 259 254 251 242 232 223 211 208 199 192 213 230 230 238 245 249 238 216 206 206 240 240 213 221 238 213 192 180 207 228 234 246 227 213 225 202 225 279 253 281 306 301 295 296 294 286 248 244 263 238 260 273 251 248 251 250 263 260 251 262 266 262 268 269 252 252 268 266 253 231 212 215 245 239 195 208 226 229 223 207 206 205 201 204 204 195
258 258 257 251 248 241 231 221 212 204 195 200 222 232 236 243 240 238 237 227 221 223 245 249 223 215 241 244 200 164 207 223 192 241 259 201 201 201 240 260 240 276 293 284 276 279 293 281 241 175 273 262 266 266 242 237 253 256 266 271 257 261 264 253 255 261 250 246 265 264 250 232 216 208 254 284 249 219 223 227 234 230 220 209 198 199 201 195
254 257 260 252 245 240 229 219 211 200 196 210 229 233 236 242 240 234 228 222 226 230 239 247 246 228 221 245 241 165 217 246 194 237 250 191 185 230 243 248 243 284 284 266 275 285 290 277 260 260 287 272 264 252 242 258 265 252 256 262 249 254 267 266 275 282 269 255 268 273 258 233 153 169 264 297 285 252 238 226 229 240 229 221 210 201 202 199
246 247 257 251 242 235 228 217 206 200 204 217 229 235 238 241 240 235 228 225 225 227 239 248 241 228 214 233 263 219 220 253 261 259 237 173 212 254 242 246 247 271 290 256 267 277 268 263 269 270 261 261 270 247 247 284 275 238 242 254 243 246 256 259 264 260 254 256 263 278 276 239 136 278 298 298 284 276 273 244 224 236 237 228 221 208 204 203
235 219 248 254 245 232 226 216 206 205 215 225 231 240 241 235 233 231 229 228 228 230 241 244 228 226 228 234 244 228 217 238 246 254 250 227 240 236 195 187 231 254 280 265 265 263 253 267 282 272 255 257 275 261 254 285 293 267 264 260 247 250 253 251 259 252 245 250 250 259 276 237 156 312 325 308 277 270 304 283 234 222 235 238 230 217 207 204
213 224 251 253 248 235 221 214 213 212 222 228 231 239 240 233 227 224 227 228 226 227 230 235 238 236 240 247 242 224 229 240 230 233 245 243 255 194 146 154 240 251 265 272 287 287 270 283 286 273 269 268 266 272 267 269 279 276 270 267 260 253 246 232 252 267 262 254 252 258 264 251 252 319 333 324 302 290 296 302 275 220 230 248 235 223 212 202
181 245 256 245 238 232 216 213 221 221 225 231 233 234 236 237 232 225 226 227 222 222 224 228 235 233 234 242 241 229 233 234 223 232 257 252 245 220 163 229 253 237 260 272 287 280 264 270 276 273 278 272 258 263 271 270 272 262 256 266 257 240 239 239 247 267 273 263 260 261 255 248 288 312 319 319 335 332 288 309 310 240 233 254 238 225 217 204
208 234 257 245 233 224 211 212 223 226 229 234 236 236 236 237 231 223 223 225 218 217 223 226 227 230 232 229 224 225 230 229 223 237 259 252 224 214 214 263 239 235 272 270 261 317 281 267 275 277 274 261 244 250 261 259 259 255 263 276 257 239 243 251 254 265 267 262 265 265 258 294 316 316 310 311 337 322 276 333 343 269 249 262 252 232 221 206
228 228 255 249 238 225 213 213 232 241 240 236 234 235 236 233 227 220 220 226 224 219 224 227 223 224 225 219 220 223 229 242 237 236 250 241 214 216 222 232 228 244 278 251 233 288 298 283 282 281 279 273 262 276 287 269 257 258 276 295 274 253 252 256 256 258 264 274 275 262 256 289 311 312 310 319 349 281 265 324 354 322 277 268 257 246 227 207
228 221 251 255 251 240 222 218 234 243 244 240 234 231 232 231 229 224 221 223 223 219 224 230 223 221 222 219 223 226 226 236 242 245 253 244 242 239 218 222 237 247 265 254 244 268 281 279 277 269 272 283 285 294 300 277 263 265 272 274 265 259 263 270 274 268 273 284 272 248 248 274 295 298 302 317 324 251 253 282 317 340 329 279 252 245 231 210
200 218 250 241 239 242 234 230 236 237 237 242 242 235 229 228 228 224 219 222 224 222 226 231 225 222 223 220 225 229 224 223 233 247 252 244 248 244 227 238 248 244 260 274 265 267 271 272 271 260 260 270 275 283 290 273 264 268 269 265 261 260 263 269 282 289 285 276 270 268 265 268 284 292 300 310 287 239 248 283 308 326 331 319 275 250 235 215
214 263 264 232 213 222 239 238 236 237 238 239 242 240 230 224 221 214 213 222 226 223 225 228 226 226 226 222 223 229 225 219 228 242 246 244 250 247 241 246 240 241 267 276 247 253 274 276 276 273 268 271 273 275 277 269 263 269 268 261 259 262 258 256 268 283 283 272 272 286 282 274 282 290 297 299 275 255 265 282 300 312 318 337 311 266 238 219
232 254 257 235 224 230 245 235 226 229 235 236 238 238 232 228 225 219 219 224 224 222 224 226 226 225 226 225 225 229 231 226 229 236 237 242 251 250 251 253 231 219 243 266 243 244 267 275 278 283 282 281 279 273 269 262 261 272 274 262 256 259 258 257 261 266 275 279 275 277 282 284 278 272 278 277 270 268 259 237 242 324 343 1 322 284 243 223
245 236 230 231 231 237 249 243 231 232 238 239 239 237 233 233 231 226 226 225 222 220 221 226 230 227 227 228 227 229 231 232 240 245 237 238 245 245 252 264 250 218 222 264 257 246 261 275 283 287 286 282 276 267 261 261 262 269 268 255 251 255 254 256 260 259 269 278 275 271 283 284 268 253 270 270 266 268 231 206 199 207 131 40 337 299 268 235
258 245 236 238 238 239 248 249 243 243 246 242 239 239 237 235 233 232 232 228 224 222 221 227 234 233 232 231 227 229 230 229 240 250 245 243 242 237 238 251 254 245 252 269 262 248 261 276 278 273 273 277 276 264 259 269 275 272 265 254 249 251 252 255 258 261 270 277 275 273 280 281 272 273 294 273 261 253 217 211 213 218 221 207 359 343 322 270
264 258 250 247 244 243 249 252 246 244 245 243 240 241 240 236 232 231 233 230 225 229 236 237 232 228 230 231 230 232 233 232 240 246 243 240 237 233 236 242 249 259 267 270 262 254 258 269 273 270 269 276 279 272 275 288 283 271 258 246 241 246 257 265 263 264 273 277 268 262 266 275 275 274 275 256 249 241 226 222 224 226 229 223 216 349 348 319